Location: Newark
(35.8833°N, 14.5000°E)
Time: 20:42:34
(UTC+00:00)

Altair - Pass Details

Date: 27 November 2019
Orbit: 1502 x 1682 km, 47.2° (Epoch: 07 December)

Event Time Altitude Azimuth Distance (km) Brightness Sun altitude
Rises 22:09:09 0° 214° (SW) 4,734 - -72.9°
Reaches altitude 10° 22:12:20 10° 210° (SSW) 3,729 - -73.2°
Maximum altitude 22:21:22 55° 136° (SE) 1,782 - -74.1°
Drops below altitude 10° 22:30:12 10° 62° (ENE) 3,655 - -74.7°
Sets 22:33:17 0° 58° (ENE) 4,635 - -74.9°
